Regional Weather Roundup
Issued by NWS Upton, NY

Current Version | Previous Version | Graphics & Text | Print | Product List | Glossary Off
Versions: 1 2 3 4 5 6 7 8 9 10 11 12 13 14 15 16 17 18 19 20 21 22 23 24 25 26 27 28 29 30 31 32 33 34 35 36 37 38 39 40 41 42 43 44 45 46 47 48 49 50

502
ASUS41 KOKX 110108
RWROKX

REGIONAL WEATHER ROUNDUP
NATIONAL WEATHER SERVICE NEW YORK NY
800 PM EST SUN DEC 10 2017

NOTE: "FAIR" INDICATES FEW OR NO CLOUDS BELOW 12,000 FEET WITH NO
SIGNIFICANT WEATHER AND/OR OBSTRUCTIONS TO VISIBILITY.

NYZ071-072-176-178-NJZ106-104-110200-
NEW YORK CITY METRO AREA

CITY           SKY/WX    TMP DP  RH WIND       PRES   REMARKS
Central Park   CLOUDY    36  22  56 VRB3G16   30.02R
Bronx Bot Gard   N/A     36  21  55 SW12      30.00F WCI  27
Bronx Lehman C   N/A     36  23  60 SW6         N/A  WCI  31
LaGuardia APRT CLOUDY    37  22  54 SW13      30.00R WCI  29
Queens College   N/A     36  23  60 W9          N/A  WCI  29
Kennedy INTL   CLOUDY    37  25  61 W21       30.02R WCI  26
Breezy Point     N/A     36 N/A N/A SW13G22     N/A  WCI  27
Brooklyn Coll    N/A     37  23  56 SW9         N/A  WCI  31
Staten Island    N/A     36  25  64 SW8         N/A  WCI  29
Newark/Liberty CLOUDY    35  23  61 SW12      30.02R WCI  27
Teterboro      CLOUDY    36  22  56 SW8       30.00R WCI  30
$$

NYZ177-179-078>081-110200-
LONG ISLAND NEW YORK

CITY           SKY/WX    TMP DP  RH WIND       PRES   REMARKS
Jones Beach      N/A     37 N/A N/A W16G23      N/A  WCI  28
Wantagh          N/A     36  23  60 SW8         N/A  WCI  29
Matinecock PT    N/A     39 N/A N/A SW24G30     N/A  WCI  28
Farmingdale    CLOUDY    35  21  56 W9        30.01R WCI  28
MacArthur/ISP  MOCLDY    35  22  58 W10       30.00R WCI  27
Shirley        PTCLDY    35  23  61 W9        30.01R WCI  28
Mt Sinai Harb    N/A    N/A N/A N/A SW6G13      N/A
Westhampton    CLEAR     33  22  63 W8        30.01R WCI  26
East Hampton   FAIR      34  23  62 W6        29.99R WCI  29
Southold         N/A     36  25  64 SW10        N/A  WCI  28
Montauk          N/A     40  25  55 W10G18    29.99R WCI  33
$$

NYZ052-065-067-110200-
HUDSON VALLEY

CITY           SKY/WX    TMP DP  RH WIND       PRES   REMARKS
White Plains   PTCLDY    34  20  56 W8        29.97R WCI  27
Larchmont Harb   N/A     37 N/A N/A SW16        N/A  WCI  28
Croton On Huds   N/A     36 N/A N/A SW10        N/A  WCI  28
Somers           N/A     32  21  64 SW5         N/A  WCI  27
Brewster         N/A     32  21  64 W3          N/A
Newburgh       CLOUDY    32  23  69 W12       29.96R WCI  23
Montgomery     MOCLDY    31  21  66 S9        29.94R WCI  23
Otisville        N/A     32  21  64 S3          N/A
Warwick          N/A     32  21  64 W8          N/A  WCI  25
Suffern          N/A     32  21  64 S3          N/A
Poughkeepsie   CLOUDY    34  21  59 SW7       29.95R WCI  28
Albany         CLOUDY    32  21  64 S10       29.90S WCI  24
$$

NJZ001-105-106-008-010-013-015-019>022-104-110200-
NEW JERSEY

CITY           SKY/WX    TMP DP  RH WIND       PRES   REMARKS
Newark/Liberty CLOUDY    35  23  61 SW12      30.02R WCI  27
Teterboro      CLOUDY    36  22  56 SW8       30.00R WCI  30
Caldwell       CLOUDY    34  21  59 SW5       30.01R WCI  30
Somerville     CLOUDY    33  23  66 CALM      30.00R
Linden         FAIR      36  22  57 CALM      30.03R
Perth Amboy      N/A     36 N/A N/A SW12        N/A  WCI  27
Sussex         PTCLDY    31  22  69 SW3       29.96R
Andover        NOT AVBL
Trenton        PTCLDY    34  21  59 SW7       30.02R WCI  28
Millville      PTCLDY    30  25  81 CALM      30.07S
Atlantic City  CLEAR     32  23  69 SW5       30.07S WCI  27
Wrightstown    CLOUDY    32  23  70 S6        30.02R WCI  26
Toms River     CLOUDY    30  25  81 SW7       30.06R WCI  23
Belmar         PTCLDY    32  24  72 SW6       30.05R WCI  26
$$

PAZ047>061-062-071-110200-
EASTERN PENNSYLVANIA

CITY           SKY/WX    TMP DP  RH WIND       PRES   REMARKS
Philadelphia   CLOUDY    36  23  59 SW9       30.05R WCI  29
Allentown      CLOUDY    32  21  64 SW7       30.00R WCI  26
Scranton       CLOUDY    31  18  58 SW10      29.94R WCI  22
$$

CTZ002-004>006-009-010-012-RIZ004-006-007-MAZ004-011-015-110200-
SOUTHERN NEW ENGLAND
 IN CT

CITY           SKY/WX    TMP DP  RH WIND       PRES   REMARKS
Bradley INTL   MOCLDY    31  22  69 S8        29.93S WCI  23
Hartford       CLOUDY    34  24  67 S7        29.95S WCI  28
Danbury        CLOUDY    34  21  59 SW6       29.97R WCI  29
Wtrbury/Oxford CLOUDY    31  22  69 SW6       29.95R WCI  25
Norwalk Harbor   N/A     36 N/A N/A W18         N/A  WCI  25
Bridgeport     PTCLDY    37  22  54 W13G23    29.99R WCI  29
Meriden        CLOUDY    26  22  84 CALM      29.97R
New Haven      CLOUDY    38  24  57 W13G21    29.98R WCI  30
Chester        FAIR      34  23  64 SW6       29.96R WCI  29
Groton         CLOUDY    37  23  56 W6        29.97R WCI  32
Wilimantic     CLEAR     29  22  75 CALM      29.96R

 IN RI

CITY           SKY/WX    TMP DP  RH WIND       PRES   REMARKS
Providence     CLEAR     32  23  69 SW6       29.97R WCI  26
Block Island     N/A    N/A N/A N/A MISG        N/A
Westerly       CLOUDY    37  23  56 CALM      29.98R
 IN MA

CITY           SKY/WX    TMP DP  RH WIND       PRES   REMARKS
Boston         MOCLDY    32  25  75 SW12      29.94R WCI  23
Worcester      CLEAR     24  18  77 SW6       29.88S WCI  17
Westfield      MOCLDY    24  23  96 CALM      29.91F
Provincetown   CLEAR     37  24  59 SW18      29.96R WCI  27
Nantucket      CLOUDY    39  27  62 NW8       29.98R WCI  33
$$

ANZ330-335-338-340-345-350-353-355-110200-
COASTAL MARINE OBSERVATIONS


STATION/POSITION TIME  SKY/WX   TEMP    WIND        PRES    VSBY  WAVE
                                AIR SEA DIR/SP/G                  HT/PER
                 (UTC)          (F)     (DEG/KT/KT) (MB)    (MI)  (FT/S)
NY HARB ENTRANCE 2350            40 52  250/ 19/ 23 1015.7          4/10
20 S FIRE ISLAND 2350            40 53  280/ 21/ 27 1016.1          6/ 5
GREAT SOUTH BAY  0000            38 45  270/ 17/ 21   N/A
HUDSON CANYON    2350            43 56  270/ 17/ 21 1016.4          7/ 9
KINGS POINT      0030            38 46  280/ 15/ 19 1016.5
EXECUTION ROCKS  0015            39     220/ 16/ 19   N/A
WESTERN LI SOUND 2349            40     250/ 17/ 25   N/A           2/ 3
CENTRAL LI SOUND 2353            42     250/ 17/ 23   N/A           3
ROBBINS REEF     0030            37     220/  9/ 12 1016.7
$$


>>>>>>>>>>>>>>>>>>>>>>>>>>>> KEY <<<<<<<<<<<<<<<<<<<<<<<<<<<
>                                                          <
>     SKY/WX - Sky Condition/Present Weather               <
>     TMP    - Temperature in Fahrenheit                   <
>     DP     - Dew Point in Fahrenheit                     <
>     RH     - Relative Humidity in Percent                <
>     WIND   - Direction (from) and Speed in MPH           <
>     PRES   - Mean Sea Level Pressure (inches of Hg)      <
>     WCI    - Wind Chill Index                            <
>     VSB    - VISIBILITY IN MILES                         <
>     HX     - HEAT INDEX                                  <
>     TC     - TEMPERATURE IN CELSIUS                      <
>     VRB    - VARIABLE WIND DIRECTION                     <
>                                                          <
>>>>>>>>>>>>>>>>>>>>>>>>>>>> KEY <<<<<<<<<<<<<<<<<<<<<<<<<<<




USA.gov is the U.S. government's official web portal to all federal, state and local government web resources and services.